GW5822 Weather Reports


time (UTC)temp
F
wind
direction
speed
knots
gust
knots
rain 1hr
in
rain 24hr
in
rain mn
in
humidity
%
barometer
mb
20260906173537 77 162 1.7 4.3 0.00 0.00 0.00 73 1019.1
20260906172534 77 204 0.9 2.6 0.00 0.00 0.00 74 1019.2
20260906171550 76 167 0.9 3.5 0.00 0.00 0.00 74 1019.3
20260906170526 76 228 1.7 3.5 0.00 0.00 0.00 74 1019.6
20260906165523 75 215 0.9 1.7 0.00 0.00 0.00 76 1019.8
20260906164540 74 34 0.9 3.5 0.00 0.00 0.00 76 1019.7
20260906163537 73 154 1.7 4.3 0.00 0.00 0.00 77 1019.7
20260906162534 72 127 0.9 2.6 0.00 0.00 0.00 81 1019.7
20260906161530 70 203 1.7 4.3 0.00 0.00 0.00 80 1019.7
20260906160527 70 166 1.7 4.3 0.00 0.00 0.00 80 1019.7
20260906155523 68 120 0.9 2.6 0.00 0.00 0.00 85 1019.7
20260906154520 67 167 1.7 5.2 0.00 0.00 0.00 84 1019.6
20260906153536 68 174 1.7 4.3 0.00 0.00 0.00 83 1019.6
20260906152531 67 166 1.7 6.1 0.00 0.00 0.00 83 1019.9
20260906151529 67 165 1.7 5.2 0.00 0.00 0.00 83 1019.7
20260906150526 66 188 1.7 4.3 0.00 0.00 0.00 84 1019.5
20260906145522 66 206 1.7 4.3 0.00 0.00 0.00 86 1019.5
20260906144518 65 202 0.9 5.2 0.00 0.00 0.00 88 1019.6
20260906143536 64 192 2.6 5.2 0.00 0.00 0.00 88 1019.8
20260906142533 64 117 1.7 5.2 0.00 0.00 0.00 89 1019.5
20260906141529 63 165 0.9 4.3 0.00 0.00 0.00 91 1019.7
20260906140546 62 191 0.9 2.6 0.00 0.00 0.00 94 1019.9
20260906135521 62 171 0.9 3.5 0.00 0.00 0.00 96 1020.0
20260906134518 61 174 1.7 5.2 0.00 0.00 0.00 99 1019.9
20260906133534 61 206 0.9 1.7 0.00 0.00 0.00 99 1020.0
20260906132532 60 191 0.9 3.5 0.00 0.00 0.00 99 1020.0
20260906131529 59 198 0.9 2.6 0.00 0.00 0.00 99 1020.1
20260906130525 59 194 0.0 0.9 0.00 0.00 0.00 99 1020.1
20260906125521 58 243 0.0 1.7 0.00 0.00 0.00 99 1020.0
20260906124519 57 219 0.0 2.6 0.00 0.00 0.00 99 1019.6
20260906123535 56 185 0.0 1.7 0.00 0.00 0.00 99 1019.4
20260906122532 55 219 0.0 0.9 0.00 0.00 0.00 99 1019.4
20260906121528 55 0.0 1.7 0.00 0.00 0.00 99 1019.4
20260906120525 55 252 0.0 1.7 0.00 0.00 0.00 99 1019.3
20260906115521 55 182 0.0 1.7 0.00 0.00 0.00 99 1019.1
20260906114517 55 165 0.0 0.9 0.00 0.00 0.00 99 1019.0
20260906113534 55 0.0 0.9 0.00 0.00 0.00 99 1019.1
20260906112550 56 221 0.0 1.7 0.00 0.00 0.00 99 1019.0
20260906111527 56 0.0 1.7 0.00 0.00 0.00 99 1018.9
20260906110523 56 272 0.9 1.7 0.00 0.00 0.00 99 1018.8
20260906105520 57 192 0.0 1.7 0.00 0.00 0.00 99 1018.5
20260906104518 57 229 0.0 1.7 0.00 0.00 0.00 99 1018.4
20260906103535 57 235 0.0 1.7 0.00 0.00 0.00 99 1018.4
20260906102531 57 200 0.9 1.7 0.00 0.00 0.00 99 1018.4
20260906101527 57 188 0.9 1.7 0.00 0.00 0.00 99 1018.4
20260906100544 57 217 0.9 1.7 0.00 0.00 0.00 99 1018.4
20260906095540 57 193 0.0 2.6 0.00 0.00 0.00 99 1018.4
20260906094538 58 171 0.0 1.7 0.00 0.00 0.00 99 1018.5
20260906093534 58 188 0.9 2.6 0.00 0.00 0.00 99 1018.4
20260906092530 58 153 0.0 1.7 0.00 0.00 0.00 99 1018.3
20260906091548 58 197 0.9 2.6 0.00 0.00 0.00 99 1018.5
20260906090524 58 184 0.9 1.7 0.00 0.00 0.00 99 1018.2
20260906085520 58 161 0.9 2.6 0.00 0.00 0.00 99 1018.2
20260906084557 58 146 0.9 4.3 0.00 0.00 0.00 99 1018.2
20260906083555 58 188 0.9 2.6 0.00 0.00 0.00 99 1018.2
20260906082532 58 206 0.9 2.6 0.00 0.00 0.00 99 1018.4
20260906081547 58 183 1.7 3.5 0.00 0.00 0.00 99 1018.5
20260906080524 58 160 0.0 1.7 0.00 0.00 0.00 99 1018.5
20260906075520 58 185 0.0 1.7 0.00 0.00 0.00 99 1018.7
20260906074538 58 284 0.0 1.7 0.00 0.00 0.00 99 1018.8
20260906073534 58 156 0.0 1.7 0.00 0.00 0.00 99 1019.0
20260906072529 58 255 0.0 1.7 0.00 0.00 0.00 99 1018.9
20260906071548 58 290 0.9 1.7 0.00 0.00 0.00 99 1018.7
20260906070524 58 164 0.0 1.7 0.00 0.00 0.00 99 1018.5
20260906065520 58 254 0.0 0.9 0.00 0.00 0.00 99 1018.6
20260906064537 58 65 0.0 0.9 0.00 0.00 0.00 99 1018.4
20260906063533 58 231 0.9 1.7 0.00 0.00 0.00 98 1018.4
20260906062530 59 145 0.0 0.9 0.00 0.00 0.00 98 1018.5
20260906061526 59 209 0.0 1.7 0.00 0.00 0.00 98 1018.7
20260906060544 59 262 0.9 1.7 0.00 0.00 0.00 97 1018.7
20260906055520 60 267 0.0 1.7 0.00 0.00 0.00 97 1018.7
20260906054537 60 104 0.0 1.7 0.00 0.00 0.00 97 1018.6
20260906053534 60 207 0.9 2.6 0.00 0.00 0.00 97 1018.4
20260906052530 60 196 0.9 1.7 0.00 0.00 0.00 98 1018.5
20260906051526 60 203 0.9 1.7 0.00 0.00 0.00 98 1018.7
20260906050524 60 211 0.0 0.9 0.00 0.00 0.00 98 1018.7
20260906045540 60 208 0.0 1.7 0.00 0.00 0.00 98 1018.6
20260906044536 60 252 0.0 1.7 0.00 0.00 0.00 98 1018.7
20260906043533 60 221 0.0 1.7 0.00 0.00 0.00 97 1018.8
20260906042529 60 234 0.0 1.7 0.00 0.00 0.00 97 1019.0
20260906041526 60 208 0.9 1.7 0.00 0.00 0.00 96 1019.0
20260906040544 60 255 0.0 1.7 0.00 0.00 0.00 96 1019.0
20260906035519 60 209 0.0 1.7 0.00 0.00 0.00 95 1018.9
20260906034535 61 194 0.0 1.7 0.00 0.00 0.00 95 1018.8
20260906033532 61 266 0.0 1.7 0.00 0.00 0.00 95 1018.7
20260906032528 61 193 0.9 1.7 0.00 0.00 0.00 94 1018.6
20260906031525 61 189 0.9 2.6 0.00 0.00 0.00 94 1018.5
20260906030523 61 204 0.9 2.6 0.00 0.00 0.00 94 1018.3
20260906025519 61 221 0.0 1.7 0.00 0.00 0.00 95 1018.4
20260906024535 61 202 0.9 1.7 0.00 0.00 0.00 95 1018.3
20260906023533 61 199 0.9 1.7 0.00 0.00 0.00 95 1017.9
20260906022528 61 199 0.9 2.6 0.00 0.00 0.00 95 1017.8
20260906021524 61 180 0.9 2.6 0.00 0.00 0.00 95 1017.6
20260906020521 61 218 0.9 2.6 0.00 0.00 0.00 96 1017.5
20260906015537 61 273 0.9 3.5 0.00 0.00 0.00 96 1017.3
20260906014533 61 205 0.9 3.5 0.00 0.00 0.00 96 1017.1
20260906013531 62 208 0.9 2.6 0.00 0.00 0.00 96 1017.1
20260906012527 62 227 0.9 3.5 0.00 0.00 0.00 96 1017.0
20260906011524 62 198 0.9 2.6 0.00 0.00 0.00 96 1017.1
20260906010520 62 193 0.9 3.5 0.00 0.00 0.00 96 1017.0
20260906005535 62 181 0.9 1.7 0.00 0.00 0.00 96 1017.1
20260906004532 62 188 0.9 3.5 0.00 0.00 0.00 95 1017.2
20260906003529 62 183 1.7 3.5 0.00 0.00 0.00 95 1017.0
20260906002525 63 200 1.7 4.3 0.00 0.00 0.00 94 1016.8
20260906001542 63 175 0.9 4.3 0.00 0.00 0.00 94 1017.0
20260906000519 63 181 1.7 6.1 0.00 0.00 0.00 93 1017.1
20260905235535 64 196 0.9 3.5 0.00 0.00 0.00 93 1017.2
20260905234530 64 173 0.9 3.5 0.00 0.00 0.00 93 1017.4
20260905233526 64 260 1.7 2.6 0.00 0.00 0.00 93 1017.5
20260905232523 64 196 0.9 3.5 0.00 0.00 0.00 93 1017.4
20260905231520 64 196 1.7 4.3 0.00 0.00 0.00 92 1017.7
20260905230537 64 181 1.7 3.5 0.00 0.00 0.00 93 1017.9
20260905225552 64 200 1.7 3.5 0.00 0.00 0.00 93 1017.8
20260905224529 64 210 0.9 3.5 0.00 0.00 0.00 93 1017.7
20260905223627 64 236 0.9 2.6 0.00 0.00 0.00 94 1017.8
20260905222522 64 201 0.9 2.6 0.00 0.00 0.00 95 1017.9
20260905221520 64 231 0.9 3.5 0.00 0.00 0.00 95 1018.0
20260905220536 64 220 0.9 2.6 0.00 0.00 0.00 94 1018.0
20260905215532 64 184 1.7 3.5 0.00 0.00 0.00 93 1018.0
20260905214548 65 219 1.7 3.5 0.00 0.00 0.00 93 1018.2
20260905213545 65 9 0.9 2.6 0.00 0.00 0.00 94 1018.2
20260905212521 65 166 1.7 5.2 0.00 0.00 0.00 94 1018.2
20260905211517 65 181 1.7 3.5 0.00 0.00 0.00 94 1018.4
20260905210535 64 179 1.7 3.5 0.00 0.00 0.00 94 1018.5
20260905205532 64 195 1.7 4.3 0.00 0.00 0.00 94 1018.6
20260905204528 65 206 1.7 3.5 0.00 0.00 0.00 94 1018.9
20260905203524 64 353 0.9 2.6 0.00 0.00 0.00 96 1018.7
20260905202540 64 210 0.9 2.6 0.00 0.00 0.00 96 1018.7
20260905201518 64 183 1.7 3.5 0.00 0.00 0.00 96 1018.9
20260905200534 64 179 1.7 3.5 0.00 0.00 0.00 95 1018.9
20260905195529 64 211 0.9 2.6 0.00 0.00 0.00 95 1018.8
20260905194526 65 195 1.7 3.5 0.00 0.00 0.00 95 1018.8
20260905193544 64 360 1.7 3.5 0.00 0.00 0.00 95 1018.7
20260905192519 65 185 1.7 3.5 0.00 0.00 0.00 94 1018.8
20260905191555 65 234 1.7 3.5 0.00 0.00 0.00 95 1018.6
20260905190533 65 195 1.7 4.3 0.00 0.00 0.00 94 1018.6
20260905185549 65 190 1.7 4.3 0.00 0.00 0.00 94 1018.6
20260905184545 65 195 1.7 3.5 0.00 0.00 0.00 94 1018.8
20260905183522 65 184 0.9 3.5 0.00 0.00 0.00 96 1018.5
20260905182558 64 228 0.9 4.3 0.00 0.00 0.00 96 1018.7
20260905181535 64 175 1.7 3.5 0.00 0.00 0.00 96 1018.7
20260905180552 64 189 1.7 4.3 0.00 0.00 0.00 96 1018.8
20260905175527 64 188 1.7 4.3 0.00 0.00 0.00 96 1018.8
20260905174525 64 213 1.7 3.5 0.00 0.00 0.00 96 1018.7